This is the latest recevied weather packets stored in our database for station/object KB3KAV. If no packets are shown the sender has not sent any weather packets the latest 10 day(s).
| Time | Temp. | Humidity | Pressure | Rain* | Wind** | Luminosity | Snow |
|---|---|---|---|---|---|---|---|
| 1787496821 | 19.44° C | 91% | 1040.4 hPa | 0 mm | - | 173 W/m² | - |
| 1787496217 | 19.44° C | 92% | 1040.2 hPa | 0 mm | - | 140 W/m² | - |
| 1787495611 | 19.44° C | 92% | 1040.2 hPa | 0 mm | - | 142 W/m² | - |
| 1787495009 | 19.44° C | 91% | 1039.9 hPa | 0 mm | - | 135 W/m² | - |
| 1787494404 | 18.89° C | 91% | 1039.9 hPa | 0 mm | - | 184 W/m² | - |
| 1787493802 | 18.89° C | 93% | 1040.1 hPa | 0 mm | - | 157 W/m² | - |
| 1787493198 | 18.89° C | 93% | 1039.9 hPa | 0 mm | - | 117 W/m² | - |
| 1787492594 | 18.89° C | 93% | 1039.9 hPa | 0 mm | - | 134 W/m² | - |
| 1787491991 | 18.33° C | 93% | 1039.8 hPa | 0 mm | - | 83 W/m² | - |
| 1787491386 | 18.33° C | 94% | 1039.6 hPa | 0 mm | - | 63 W/m² | - |
| 1787490784 | 17.78° C | 95% | 1039.4 hPa | 0 mm | - | 146 W/m² | - |
| 1787490182 | 17.78° C | 95% | 1039.5 hPa | 0 mm | - | 142 W/m² | - |
| 1787489578 | 17.78° C | 95% | 1039.5 hPa | 0 mm | - | 142 W/m² | - |
| 1787488976 | 18.33° C | 95% | 1039.3 hPa | 0 mm | - | 92 W/m² | - |
| 1787488373 | 17.78° C | 95% | 1039.4 hPa | 0 mm | - | 182 W/m² | - |
| 1787487772 | 17.78° C | 95% | 1039.4 hPa | 0 mm | - | 101 W/m² | - |
| 1787487170 | 17.22° C | 95% | 1039.4 hPa | 0 mm | - | 111 W/m² | - |
| 1787486571 | 17.22° C | 95% | 1039.1 hPa | 0 mm | - | 78 W/m² | - |
| 1787485965 | 16.67° C | 95% | 1039.2 hPa | 0 mm | - | 59 W/m² | - |
| 1787485362 | 16.67° C | 95% | 1039.1 hPa | 0 mm | - | 45 W/m² | - |
| 1787484761 | 16.67° C | 95% | 1039.2 hPa | 0 mm | - | 35 W/m² | - |
| 1787484158 | 16.67° C | 95% | 1039.6 hPa | 0 mm | - | 21 W/m² | - |
| 1787483556 | 16.67° C | 95% | 1039.4 hPa | 0 mm | - | 10 W/m² | - |
| 1787482954 | 16.67° C | 95% | 1039.2 hPa | 0 mm | - | 10 W/m² | - |
| 1787482352 | 16.67° C | 95% | 1039.1 hPa | 0 mm | - | 6 W/m² | - |
* Rain latest hour (hover to see other rain measurements)
** Current wind speed in m/s (hover to see current wind gust speed)